Regional Weather Roundup
Issued by NWS

Home | Current Version | Previous Version | Text Only | Print | Product List | Glossary Off
Versions: 1 2 3 4 5 6 7 8 9 10 11 12 13 14 15 16 17 18 19 20 21 22 23 24 25 26 27 28 29 30 31 32 33 34 35 36 37 38 39 40 41 42 43 44 45 46 47 48 49 50

000
ASUS43 KDTX 261010
RWRMI
MICHIGAN HOURLY REGIONAL WEATHER ROUNDUP
NATIONAL WEATHER SERVICE DETROIT/PONTIAC MI
600 AM EDT SAT JUL 26 2014

NOTE: "FAIR" INDICATES FEW OR NO CLOUDS BELOW 12,000 FEET WITH NO
SIGNIFICANT WEATHER AND/OR OBSTRUCTION TO VISIBILITY.

MIZ047>049-052>055-059>063-066>070-074>076-081>083-261100-
SOUTHEAST LOWER MICHIGAN

CITY           SKY/WX    TMP DP  RH WIND       PRES   REMARKS
ADRIAN         CLEAR     57  55  93 CALM      29.94S
ALMA           CLEAR     58  56  93 CALM      29.90S
ANN ARBOR      FOG       51  49  92 CALM      29.93S VSB 1/2
BAD AXE        PTCLDY    61  56  83 SW3       29.91S
DETROIT CITY   CLEAR     65  56  72 S3        29.93S
DETROIT        PTCLDY    61  56  83 S5        29.94S
FLINT          CLEAR     61  55  81 S6        29.92S
GROSSE ILE     CLEAR     66  55  68 SW6       29.93S
HILLSDALE      CLEAR     57  57  99 CALM      29.93S
HOWELL         CLEAR     57  56  94 CALM      29.93R

CITY           SKY/WX    TMP DP  RH WIND       PRES   REMARKS
JACKSON        CLEAR     59  56  89 CALM      29.93R
LAMBERTVILLE   CLEAR     59  55  88 CALM      29.94S
LANSING        CLEAR     60  57  89 S5        29.92R
LAPEER         NOT AVBL
MASON          CLEAR     58  56  92 S3        29.92S
MONROE         CLEAR     57  55  94 CALM      29.92S
MT. CLEMENS    CLEAR     60  55  85 S2        29.92S
PONTIAC        CLEAR     58  53  84 CALM      29.93S
PORT HOPE        N/A     65  57  75 SW6       29.88S
PORT HURON     MOCLDY    55  54  94 CALM      29.93S
TRI CITIES     CLEAR     63  58  83 S7        29.90S
YPSILANTI      CLEAR     63  56  78 S6        29.94S
$$
MIZ043>046-050>051-056>058-064>065-071>073-077>080-261100-
SOUTHWEST LOWER MICHIGAN

CITY           SKY/WX    TMP DP  RH WIND       PRES   REMARKS
BATTLE CREEK   CLEAR     61  56  83 S5        29.91F
BENTON HARBOR  CLEAR     60  57  89 SE3       29.88F
BIG RAPIDS     PTCLDY    56  56 100 E5        29.88S
COLDWATER      PTCLDY    61  58  90 CALM      29.92S
HOLLAND        PTCLDY    62  58  86 CALM      29.89F
GRAND RAPIDS   MOCLDY    62  59  90 S7        29.90S
KALAMAZOO      CLEAR     62  57  83 S5        29.92R
MARSHALL       CLEAR     58  56  92 S7        29.92R
MUSKEGON       PTCLDY    64  60  87 S5        29.87F
$$
MIZ016>042-261100-
NORTHERN LOWER MICHIGAN

CITY           SKY/WX    TMP DP  RH WIND       PRES   REMARKS
ALPENA         CLOUDY    64  58  80 SW5       29.86S
BEAVER ISLAND  CLOUDY    63  61  94 SW8       29.82S
BELLAIRE       CLOUDY    66  58  75 S5        29.83F
CADILLAC       CLOUDY    62  59  92 SW5       29.87F
CHARLEVOIX     CLOUDY    66  60  80 SW3       29.86S
FRANKFORT      CLOUDY    65  60  82 SW7       29.85S
GAYLORD        CLOUDY    63  56  78 SW6       29.86F
GRAYLING       CLOUDY    63  59  88 CALM      29.87F
HARBOR SPRINGS CLOUDY    66  60  80 CALM      29.83F
HOUGHTON LAKE  CLOUDY    62  58  86 SW6       29.88F
MANISTEE       MOCLDY    64  57  77 CALM      29.86F
OSCODA         MOCLDY    64  57  78 SW7       29.87F
PELLSTON       CLOUDY    64  60  87 W3        29.83F
TRAVERSE CITY  CLOUDY    67  59  75 S3        29.83F
$$
MIZ007>008-015-261100-
EASTERN UPPER MICHIGAN

CITY           SKY/WX    TMP DP  RH WIND       PRES   REMARKS
KINROSS        CLOUDY    61  59  94 SW3       29.82S
MACKINAC ISLAN CLOUDY    63  60  90 SW5       29.82S
NEWBERRY       CLOUDY    60  59  97 S6        29.79F
S. S. MARIE    CLOUDY    62  58  86 S5        29.81S
$$
MIZ004>006-011>014-085-261100-
CENTRAL UPPER MICHIGAN

CITY           SKY/WX    TMP DP  RH WIND       PRES   REMARKS
MANISTIQUE     CLOUDY    59  58  97 CALM      29.79S FOG
ESCANABA       CLOUDY    64  59  82 SW6       29.79F
MENOMINEE      MOCLDY    66  61  82 SW5       29.79F
SAWYER-GWINN   CLOUDY    64  61  92 S3        29.79S
$$
MIZ001>003-009>011-084-261100-
WESTERN UPPER MICHIGAN

CITY           SKY/WX    TMP DP  RH WIND       PRES   REMARKS
IRON MOUNTAIN  CLOUDY    62  60  93 SE3       29.79S FOG
HOUGHTON       LGT RAIN  66  64  93 S3        29.74S
COPPER HARBOR    N/A     66  63  90 VRB5      29.72F
$$

ABBREVIATIONS USED IN REMARKS
   TC - TEMPERATURE IN CELSIUS
  WCI - WIND CHILL INDEX
   HX - HEAT INDEX
  VSB - VISIBILITY



USA.gov is the U.S. government's official web portal to all federal, state and local government web resources and services.